Weather History for Lovelock, NV

Change the Weather History Date:

Thursday, February 14, 2013

  Actual Average Record
Temperature  
Mean Temperature 36 °F -  
Max Temperature 54 °F 47 °F 70 °F (2014)
Min Temperature 18 °F 22 °F -4 °F (1949)
Degree Days  
Heating Degree Days 29    
Moisture  
Dew Point 22 °F    
Average Humidity 60    
Maximum Humidity 82    
Minimum Humidity 34    
Precipitation  
Precipitation 0.00 in - - ()
Sea Level Pressure  
Sea Level Pressure 30.45 in    
Wind  
Wind Speed 5 mph (NNE)    
Max Wind Speed 12 mph    
Max Gust Speed -    
Visibility 10 miles    
Events      
Averages and records for this station are not official NWS values.
T = Trace of Precipitation, MM = Missing Value Source: NWS Daily Summary

Daily Weather History Graph

Daily Weather History Graph

Search for Another Location

Airport:

Trip Planner

Search our weather history database for the weather conditions in past years. The results will help you decide how hot, cold, wet, or windy it might be!

Date:

Astronomy

Feb. 14, 2013 Rise Set
Actual Time 6:48 AM PST 5:29 PM PST
Civil Twilight 6:20 AM PST 5:57 PM PST
Nautical Twilight 5:48 AM PST 6:28 PM PST
Astronomical Twilight 5:17 AM PST 7:00 PM PST
Moon 8:52 AM PST (2/14) 10:37 PM PST (2/14)
Length of Visible Light 11h 36m
Length of Day
10h 41m
Waxing Crescent, 22% of the Moon is Illuminated
Feb 14
Waxing Crescent
Feb 17
First Quarter
Feb 25
Full
Mar 4
Last Quarter
Mar 11
New

Hourly Weather History & Observations

Time (PST) Temp. Windchill Dew Point Humidity Pressure Visibility Wind Dir Wind Speed Gust Speed Precip Events Conditions
12:53 AM 21.0 °F 14.6 °F 15.1 °F 78% 30.37 in 10.0 mi South 4.6 mph - N/A   Clear
1:53 AM 18.0 °F - 12.0 °F 78% 30.39 in 10.0 mi Calm Calm - N/A   Clear
2:53 AM 19.0 °F 11.1 °F 14.0 °F 81% 30.38 in 10.0 mi WNW 5.8 mph - N/A   Clear
3:53 AM 18.0 °F 11.1 °F 12.9 °F 81% 30.39 in 10.0 mi South 4.6 mph - N/A   Clear
4:53 AM 19.0 °F 13.9 °F 14.0 °F 81% 30.41 in 10.0 mi ENE 3.5 mph - N/A   Clear
5:53 AM 18.0 °F 12.7 °F 12.9 °F 81% 30.45 in 10.0 mi NW 3.5 mph - N/A   Clear
6:53 AM 30.0 °F 24.1 °F 25.0 °F 82% 30.47 in 10.0 mi North 5.8 mph - N/A   Clear
7:53 AM 37.0 °F 29.8 °F 27.0 °F 67% 30.48 in 10.0 mi NNE 10.4 mph - N/A   Mostly Cloudy
8:53 AM 39.9 °F 33.9 °F 28.0 °F 63% 30.50 in 10.0 mi NNE 9.2 mph - N/A   Clear
9:53 AM 45.0 °F 39.3 °F 28.0 °F 52% 30.49 in 10.0 mi North 11.5 mph - N/A   Clear
10:53 AM 48.0 °F - 28.0 °F 46% 30.47 in 10.0 mi NE 11.5 mph - N/A   Clear
11:53 AM 50.0 °F - 27.0 °F 41% 30.47 in 10.0 mi Variable 5.8 mph - N/A   Clear
12:53 PM 51.1 °F - 27.0 °F 39% 30.45 in 10.0 mi Calm Calm - N/A   Clear
1:53 PM 53.1 °F - 26.1 °F 35% 30.43 in 10.0 mi NNE 4.6 mph - N/A   Clear
2:53 PM 54.0 °F - 27.0 °F 35% 30.42 in 10.0 mi NNE 6.9 mph - N/A   Clear
3:53 PM 54.0 °F - 26.1 °F 34% 30.43 in 10.0 mi NNE 8.1 mph - N/A   Clear
4:53 PM 51.1 °F - 26.1 °F 38% 30.43 in 10.0 mi NNE 11.5 mph - N/A   Clear
5:53 PM 45.0 °F 39.3 °F 25.0 °F 46% 30.46 in 10.0 mi NNE 11.5 mph - N/A   Clear
6:53 PM 41.0 °F 34.7 °F 24.1 °F 51% 30.45 in 10.0 mi NNE 10.4 mph - N/A   Clear
7:53 PM 36.0 °F 31.1 °F 21.9 °F 57% 30.46 in 10.0 mi North 5.8 mph - N/A   Clear
8:53 PM 32.0 °F - 21.0 °F 64% 30.48 in 10.0 mi Calm Calm - N/A   Clear
9:53 PM 36.0 °F - 23.0 °F 59% 30.47 in 10.0 mi Calm Calm - N/A   Clear
10:53 PM 27.0 °F 23.0 °F 19.9 °F 75% 30.50 in 10.0 mi Variable 3.5 mph - N/A   Clear
11:53 PM 26.1 °F 20.5 °F 18.0 °F 71% 30.51 in 10.0 mi WSW 4.6 mph - N/A   Clear